Probability
0 1 2 3 3 3 2 2 3 5 8 11 13 14 17 22 29 34 34 30 26 23 21 21 20 19 18 20 21 23 24 26 25 21 16 13 8 4 3 3 3 4 4 4
0 1 2 3 4 4 4 5 4 5 8 11 12 14 17 22 28 32 32 30 26 23 21 20 19 17 16 17 20 23 25 25 24 21 17 13 9 7 7 6 6 6 6 5
0 1 2 3 5 7 8 7 6 7 9 13 14 16 19 23 29 31 31 31 28 25 24 21 18 15 14 15 18 21 23 24 23 21 19 15 12 12 11 10 9 9 9 9
0 0 1 2 5 8 9 9 10 11 14 17 20 22 23 26 30 31 31 32 30 28 28 26 20 15 14 15 16 19 20 22 23 23 21 18 16 15 14 12 11 11 12 12
0 0 1 2 4 6 8 11 14 16 19 23 25 27 27 29 31 30 30 30 28 28 30 28 22 17 16 16 17 19 20 22 24 23 22 20 20 20 18 16 15 15 15 14
0 0 1 2 3 5 8 11 13 16 21 24 27 28 27 27 27 25 26 27 26 27 29 27 23 20 18 18 20 22 22 22 23 21 20 20 21 21 21 20 19 19 17 15
0 0 1 3 4 5 7 9 11 15 18 20 23 25 25 24 22 20 21 25 25 25 26 24 21 19 18 19 21 22 21 20 18 16 17 18 19 20 22 22 21 20 17 15
0 1 2 4 5 6 8 9 11 13 16 17 20 22 22 22 19 15 15 19 23 25 24 20 18 16 16 16 16 17 17 15 13 12 13 14 17 20 21 22 22 20 17 16
2 4 6 7 7 9 11 11 11 13 15 18 20 21 21 19 15 11 11 14 19 23 23 19 15 14 12 11 12 14 15 13 11 10 10 12 15 17 18 20 21 19 17 16
5 7 9 10 11 12 13 13 12 14 17 20 21 21 20 17 13 10 10 13 16 18 19 16 13 12 10 9 10 12 13 12 11 10 10 11 12 14 15 17 19 19 17 15
4 6 8 11 12 14 14 13 15 17 19 21 22 21 18 15 12 10 12 13 13 13 13 11 9 10 10 9 10 12 12 11 10 9 10 10 10 10 11 13 14 14 14 13
2 4 7 9 11 13 13 14 17 21 23 23 22 20 16 14 13 13 13 13 11 9 9 8 9 11 11 11 12 13 12 10 8 8 10 11 10 9 9 8 8 8 7 8
4 6 8 9 9 10 12 13 16 21 23 24 22 19 16 15 15 15 14 13 11 8 8 9 10 12 13 13 14 13 12 9 8 8 9 10 9 9 8 7 5 3 2 2
7 8 10 10 10 10 10 11 14 18 21 22 20 18 16 17 17 17 16 14 13 11 10 10 11 12 13 16 16 15 12 10 8 8 9 8 8 9 9 9 7 4 2 1
8 9 11 11 11 10 11 12 14 16 18 19 17 16 16 16 16 17 17 16 15 15 13 11 11 11 15 18 18 16 13 10 9 9 9 9 8 9 10 11 10 8 5 3
9 9 9 9 9 9 10 12 14 15 16 15 13 13 15 15 14 15 15 15 15 15 13 11 12 14 17 19 19 16 13 10 10 11 10 10 9 9 10 12 12 10 6 5
7 7 6 5 6 8 9 10 11 11 11 11 10 10 13 14 13 12 12 12 13 13 12 12 13 17 19 20 20 17 12 9 9 10 10 9 8 8 9 11 12 9 6 4
4 4 3 3 4 5 7 7 6 6 6 7 7 9 12 14 13 11 11 11 11 11 11 11 13 16 18 20 21 19 14 10 8 8 9 8 7 5 6 8 9 8 4 2
2 1 1 1 1 2 4 4 4 4 4 5 6 8 11 13 13 10 10 11 11 10 10 10 11 12 14 18 20 19 17 13 9 7 7 7 6 4 3 5 7 6 2 1
1 1 0 0 0 0 1 2 3 4 5 6 6 7 10 10 10 9 9 10 11 11 10 10 10 9 12 15 16 16 16 14 10 7 6 6 5 4 3 4 4 3 1 0
2 1 0 0 0 0 0 1 2 3 5 6 6 6 7 7 7 8 9 10 11 11 10 10 10 10 12 14 15 14 14 13 11 8 6 4 4 4 4 4 3 2 1 0
1 1 0 0 0 1 1 2 3 3 4 4 4 4 4 4 5 7 8 9 10 10 10 9 9 10 12 13 13 13 12 12 10 7 5 4 4 5 6 5 4 2 0 0
0 0 1 1 1 2 3 3 3 3 3 3 3 3 3 3 4 5 6 7 7 8 9 9 8 9 9 10 12 12 11 10 7 5 5 5 5 5 6 6 4 2 0 0
0 1 2 2 3 3 3 3 3 3 3 3 3 3 2 2 2 3 5 6 5 5 6 7 6 6 6 8 10 10 10 8 6 4 4 3 3 4 4 4 2 1 0 0
1 2 3 3 3 3 3 3 3 3 3 3 2 1 1 1 1 2 5 5 4 4 4 4 3 2 3 6 8 9 9 8 6 4 3 2 2 2 3 3 2 1 0 0
1 2 3 4 3 3 3 3 3 3 2 1 1 0 0 0 1 2 3 3 3 3 3 3 2 1 1 4 6 7 6 5 4 3 2 2 2 3 3 3 2 1 0 0
2 2 3 4 4 3 2 3 3 3 1 0 0 0 0 1 3 3 2 1 2 3 3 3 1 0 1 3 5 5 4 2 1 1 1 2 3 3 3 3 3 1 0 0
Wind_Speed
4 4 1 1 3 1 3 6 7 8 8 9 10 9 8 7 8 9 8 7 6 6 5 5 6 5 5 5 6 6 7 7 6 5 5 4 4 3 3 3 3 2 2 1
1 1 3 2 3 0 1 2 4 6 4 5 6 6 6 7 9 9 8 7 6 6 5 6 6 6 6 5 5 6 7 7 6 5 5 4 4 4 3 3 2 2 2 2
1 1 4 3 3 1 2 1 6 5 6 6 7 8 8 8 8 8 8 7 7 7 6 6 5 6 6 6 6 6 6 6 6 5 5 5 5 4 4 3 3 3 3 2
2 3 3 7 2 3 5 3 2 4 7 10 9 7 6 8 9 8 8 7 6 5 5 5 4 4 4 5 6 6 6 6 6 6 6 5 4 4 4 3 3 3 3 3
4 3 2 4 2 1 4 2 2 5 8 8 9 8 4 3 6 8 7 7 6 6 5 4 4 4 5 5 5 5 5 6 6 6 6 5 5 5 4 3 3 3 3 4
4 4 4 5 5 1 7 2 3 3 7 8 8 5 3 3 5 6 6 6 6 5 5 5 4 4 5 5 4 4 5 5 5 5 5 6 6 4 3 3 4 3 3 3
4 3 4 5 5 4 4 5 2 3 6 7 5 6 6 5 5 5 5 5 6 6 5 5 5 5 5 4 3 3 3 3 3 3 4 4 4 3 3 3 3 3 3 3
3 3 5 5 2 3 5 3 3 4 5 7 7 7 7 7 6 5 4 4 5 5 4 3 5 6 5 4 3 3 3 3 2 2 2 2 2 3 3 3 3 3 3 3
4 5 4 1 3 3 4 4 3 4 5 8 7 6 6 6 5 5 5 4 4 5 4 3 3 5 5 4 4 4 3 3 2 2 1 2 3 3 2 2 3 3 3 3
2 1 2 3 3 3 4 4 4 5 6 7 7 5 6 5 5 4 4 4 4 5 4 3 3 3 4 4 4 4 4 3 2 2 2 2 2 3 3 4 3 3 3 3
1 2 5 6 5 3 4 5 6 5 5 6 7 6 5 5 5 4 3 2 3 4 4 4 3 2 3 4 4 3 3 2 2 2 3 3 2 2 3 4 5 5 4 4
3 3 1 3 3 2 5 5 5 5 4 4 4 4 4 4 4 4 4 3 3 3 3 3 3 3 3 3 4 4 3 3 3 2 2 2 2 2 2 3 4 5 5 5
3 2 2 2 1 3 4 4 5 6 6 4 3 3 3 2 2 3 3 3 4 3 3 3 3 4 4 3 4 5 5 4 3 3 3 3 3 3 3 2 2 2 3 4
2 3 2 1 0 2 3 3 5 6 6 5 4 3 2 2 2 2 2 2 3 3 2 2 3 4 4 4 5 5 5 5 4 4 3 4 4 4 3 3 2 2 2 2
0 1 3 2 1 2 3 4 5 4 4 4 3 3 2 3 2 1 1 1 2 2 1 2 2 3 3 4 4 4 4 4 4 3 3 3 3 3 3 3 3 2 2 1
1 2 2 2 2 2 2 4 4 2 3 2 2 2 2 2 2 1 1 1 2 2 2 3 3 3 3 3 3 3 3 4 4 3 3 3 3 3 3 3 3 3 3 3
3 2 2 2 2 2 2 3 3 3 2 2 1 1 1 1 1 1 1 1 2 2 2 3 3 3 2 3 3 2 2 3 4 3 3 3 3 3 4 4 4 4 4 4
3 4 4 4 3 3 2 2 3 3 3 1 0 0 1 2 2 2 2 1 0 1 2 3 2 2 2 3 3 2 2 2 2 3 3 3 3 3 3 3 4 4 3 3
4 4 3 3 3 3 2 1 1 2 2 2 1 0 1 1 2 2 2 1 1 1 3 3 2 2 2 3 2 2 2 3 3 3 3 4 3 3 3 3 3 3 3 3
3 3 3 3 2 3 2 1 1 1 1 2 1 1 1 2 2 2 1 1 3 3 3 2 2 2 2 3 3 2 3 3 3 3 3 3 3 3 3 3 3 3 3 3
3 3 3 3 2 2 2 2 2 1 1 2 1 2 3 3 2 1 1 1 3 3 2 2 2 2 2 2 3 2 2 2 3 3 3 3 2 2 3 3 3 2 2 2
3 3 3 3 2 1 1 2 2 2 1 1 1 2 2 2 1 1 1 3 3 2 1 1 2 2 3 2 1 2 2 2 2 2 2 2 2 2 2 2 2 2 2 2
2 2 2 2 2 2 1 2 2 2 1 1 2 2 2 2 1 1 2 3 2 1 1 2 3 3 2 1 1 1 1 1 1 1 1 1 2 2 2 2 2 2 2 2
2 2 2 2 3 3 1 1 1 1 1 1 1 1 1 0 1 1 1 1 1 1 1 2 3 2 1 0 0 0 0 0 0 1 1 1 1 1 1 1 1 1 1 1
2 3 3 3 2 2 1 0 0 0 0 1 1 1 1 1 1 1 0 1 2 2 1 2 3 2 1 1 1 1 0 0 0 0 0 0 0 0 1 1 1 1 1 1
2 2 2 2 2 1 1 1 0 1 1 1 2 1 1 1 1 1 1 1 2 2 2 2 2 2 1 1 1 1 1 1 1 1 0 0 1 1 1 1 1 1 2 2
3 2 2 2 1 1 1 1 1 0 1 1 1 2 2 2 2 1 1 1 1 1 1 1 1 1 2 2 2 1 1 1 1 1 1 1 1 1 1 1 1 1 1 1
Wind_Direction
189 207 155 271 296 259 156 174 175 195 180 196 189 178 166 149 138 130 127 130 134 138 144 150 152 158 161 170 170 169 168 171 176 178 177 167 165 168 168 167 169 165 156 167
23 36 54 356 327 283 171 141 144 140 191 199 169 142 140 144 139 140 144 143 146 149 149 154 163 168 164 170 172 166 168 173 171 169 169 169 174 172 175 181 181 168 177 184
262 322 38 316 286 107 93 102 143 165 201 155 136 152 164 156 149 152 150 143 154 159 158 162 169 169 171 173 164 160 167 170 168 168 173 184 186 180 190 198 189 183 196 187
118 75 196 241 262 123 112 65 90 136 141 149 154 158 152 147 143 144 144 145 153 158 156 156 161 164 161 155 156 163 169 173 175 180 185 188 187 194 200 198 193 197 202 196
114 133 259 292 301 204 123 41 13 121 128 128 121 89 65 118 132 142 147 147 150 155 149 142 144 149 142 144 153 163 175 182 185 185 186 190 197 203 199 190 198 202 197 196
123 136 205 257 290 231 101 27 324 110 131 134 120 124 203 180 136 132 134 139 144 137 126 132 144 141 134 148 154 176 187 188 186 185 188 197 202 199 192 192 205 199 208 210
144 168 243 270 296 62 109 223 262 126 140 140 150 173 167 144 128 133 130 132 135 132 137 150 149 136 136 146 174 189 171 165 176 185 193 199 196 190 185 189 189 198 218 228
141 163 239 281 58 125 199 188 143 124 133 128 129 130 132 136 138 132 123 123 132 134 142 152 150 143 150 177 190 156 138 142 159 172 187 185 187 190 184 182 190 209 222 242
176 203 238 266 135 169 146 126 122 123 132 126 121 125 130 134 136 139 141 146 146 142 139 149 161 155 163 188 168 149 148 162 178 180 191 187 186 185 190 198 200 215 217 230
70 332 350 32 56 70 91 102 110 116 127 128 124 129 132 139 141 142 154 154 150 138 143 159 171 169 174 178 165 158 171 187 188 188 202 203 195 187 194 207 212 217 218 226
60 332 11 11 8 23 78 90 92 94 112 132 131 137 145 145 148 148 145 141 144 151 163 172 169 178 183 171 162 171 187 202 205 206 209 212 213 214 211 217 209 206 215 210
213 222 170 280 314 39 91 94 100 95 76 83 120 139 140 146 149 154 152 140 136 148 159 174 179 188 192 178 173 179 195 203 207 217 221 213 208 242 252 239 245 224 224 216
189 190 172 228 3 68 93 101 105 102 101 93 83 109 123 140 147 149 151 146 155 164 167 173 183 201 207 194 186 193 204 208 208 211 209 206 206 210 240 285 304 277 254 236
116 84 46 352 90 76 88 100 104 96 92 96 90 93 108 105 113 135 162 172 169 161 168 180 191 213 211 197 193 203 209 212 210 210 204 202 208 215 214 211 234 275 278 254
224 152 205 205 112 76 87 103 100 95 94 89 96 99 112 121 135 155 164 162 142 136 169 196 216 237 223 199 198 206 210 215 212 214 212 212 212 215 218 213 216 227 235 265
124 86 101 107 85 57 84 104 106 106 101 107 110 119 143 150 132 118 136 141 140 192 223 220 231 239 219 192 193 206 219 224 211 203 208 216 213 213 216 213 213 217 224 226
133 144 139 115 85 69 69 88 107 109 90 89 114 135 131 119 95 66 291 241 193 208 217 216 232 232 204 194 194 207 220 224 216 209 210 217 217 217 215 210 212 217 227 220
161 169 163 151 136 108 75 67 89 104 105 88 44 127 144 165 184 212 240 247 358 319 271 253 241 229 220 210 201 197 198 201 202 208 213 217 217 213 212 214 217 220 228 219
138 146 144 139 136 128 122 94 74 90 93 88 87 110 209 223 229 234 221 175 167 262 274 275 256 228 219 218 202 195 197 205 210 218 216 217 218 218 214 214 216 215 210 207
138 140 132 133 127 127 133 131 99 94 105 100 65 2 301 268 250 239 198 213 235 233 244 255 243 238 233 224 212 205 208 210 212 217 216 215 218 220 216 217 215 210 210 213
132 133 129 131 146 154 152 147 136 143 152 139 161 250 263 265 250 202 166 268 273 257 250 246 250 258 251 236 221 215 214 220 221 214 214 213 213 212 209 210 212 212 210 215
136 135 138 144 149 152 153 147 153 159 166 210 230 242 255 267 273 267 248 238 250 247 242 258 263 259 256 241 219 216 221 228 221 209 205 202 199 205 209 201 195 200 202 205
129 138 141 151 152 156 148 155 167 173 203 252 258 251 238 248 236 212 282 284 271 248 246 268 280 272 259 243 237 222 210 208 208 200 197 202 204 205 204 198 193 192 199 211
116 126 139 133 110 107 114 239 223 215 229 266 269 249 213 262 321 292 242 283 323 307 276 292 306 300 269 292 264 119 105 119 182 185 176 185 197 182 181 181 181 186 201 208
125 125 118 113 117 135 172 200 61 350 329 324 322 327 319 182 200 273 14 23 5 7 356 346 344 338 5 42 61 63 74 301 261 134 103 80 50 145 152 149 150 162 181 201
118 121 131 138 146 154 144 122 127 310 5 3 349 350 350 345 58 74 53 18 16 26 14 353 355 358 6 34 42 33 16 346 351 18 11 288 250 218 196 198 192 194 202 207
105 105 106 86 62 84 102 106 107 37 51 81 32 2 11 31 48 47 31 25 30 26 9 2 16 23 18 23 25 17 11 359 3 22 8 326 283 244 211 201 216 217 215 214